PAL580 OMDB-OERK

Flight info

Callsign PAL580
Flight time N/A
Altitude 34000
Route ANVIX R401 GIDIS G783 RIGIL M628 PEKEM/N0457F280 M628 AMBAG M321 NAGUB
Aircraft A21N/M-SDE3FGHIRWY/LB1

Departure

Time 2026-04-24 19:34
Airport Dubai International Airport (OMDB)

Arrival

Time N/A
Airport King Khalid International Airport (OERK)
Time Latitude Longitude Altitude Speed Heading
2026-04-24 18:57 25.25759 55.34690 70 ft 0 kts 211°
2026-04-24 19:13 25.25764 55.34694 70 ft 2 kts 212°
2026-04-24 19:13 25.25777 55.34703 70 ft 2 kts 211°
2026-04-24 19:14 25.25789 55.34711 70 ft 2 kts 211°
2026-04-24 19:14 25.25802 55.34720 70 ft 2 kts 211°
2026-04-24 19:14 25.25814 55.34729 70 ft 2 kts 211°
2026-04-24 19:14 25.25823 55.34734 70 ft 2 kts 204°
2026-04-24 19:15 25.25837 55.34737 70 ft 2 kts 172°
2026-04-24 19:15 25.25851 55.34732 70 ft 2 kts 145°
2026-04-24 19:15 25.25860 55.34723 70 ft 0 kts 124°
2026-04-24 19:15 25.25863 55.34717 70 ft 1 kts 120°
2026-04-24 19:16 25.25864 55.34715 70 ft 0 kts 120°
2026-04-24 19:19 25.25859 55.34724 70 ft 3 kts 117°
2026-04-24 19:20 25.25846 55.34766 70 ft 7 kts 107°
2026-04-24 19:20 25.25843 55.34837 70 ft 9 kts 91°
2026-04-24 19:20 25.25839 55.34916 70 ft 10 kts 97°
2026-04-24 19:20 25.25821 55.34992 70 ft 10 kts 119°
2026-04-24 19:21 25.25833 55.35053 70 ft 9 kts 36°
2026-04-24 19:21 25.25888 55.35092 70 ft 9 kts 32°
2026-04-24 19:21 25.25947 55.35133 70 ft 10 kts 30°
2026-04-24 19:21 25.26011 55.35174 70 ft 10 kts 30°
2026-04-24 19:22 25.26054 55.35202 70 ft 11 kts 30°
2026-04-24 19:22 25.26118 55.35268 70 ft 9 kts 81°
2026-04-24 19:22 25.26094 55.35336 70 ft 10 kts 121°
2026-04-24 19:22 25.26051 55.35413 70 ft 12 kts 120°
2026-04-24 19:23 25.25998 55.35510 70 ft 16 kts 121°
2026-04-24 19:23 25.25936 55.35622 70 ft 17 kts 121°
2026-04-24 19:23 25.25875 55.35734 70 ft 16 kts 121°
2026-04-24 19:23 25.25814 55.35842 70 ft 16 kts 121°
2026-04-24 19:24 25.25759 55.35942 70 ft 16 kts 122°
2026-04-24 19:24 25.25699 55.36048 70 ft 16 kts 121°
2026-04-24 19:24 25.25641 55.36154 70 ft 15 kts 122°
2026-04-24 19:24 25.25584 55.36258 70 ft 15 kts 121°
2026-04-24 19:25 25.25529 55.36357 70 ft 15 kts 121°
2026-04-24 19:25 25.25472 55.36458 70 ft 15 kts 121°
2026-04-24 19:25 25.25416 55.36560 70 ft 15 kts 121°
2026-04-24 19:25 25.25360 55.36662 70 ft 15 kts 121°
2026-04-24 19:26 25.25306 55.36758 70 ft 13 kts 122°
2026-04-24 19:26 25.25255 55.36849 70 ft 14 kts 121°
2026-04-24 19:26 25.25203 55.36943 70 ft 14 kts 121°
2026-04-24 19:26 25.25151 55.37036 70 ft 14 kts 122°
2026-04-24 19:27 25.25099 55.37130 70 ft 14 kts 121°
2026-04-24 19:27 25.25046 55.37224 70 ft 14 kts 121°
2026-04-24 19:27 25.24994 55.37319 70 ft 14 kts 121°
2026-04-24 19:27 25.24941 55.37415 70 ft 14 kts 121°
2026-04-24 19:28 25.24888 55.37511 70 ft 14 kts 121°
2026-04-24 19:28 25.24835 55.37607 70 ft 14 kts 121°
2026-04-24 19:28 25.24781 55.37704 70 ft 14 kts 121°
2026-04-24 19:28 25.24728 55.37799 70 ft 14 kts 121°
2026-04-24 19:29 25.24666 55.37929 70 ft 7 kts 81°
2026-04-24 19:29 25.24691 55.37965 70 ft 5 kts 35°
2026-04-24 19:29 25.24702 55.37973 70 ft 0 kts 33°
2026-04-24 19:31 25.24709 55.37978 70 ft 4 kts 33°
2026-04-24 19:32 25.24756 55.38012 70 ft 9 kts 32°
2026-04-24 19:32 25.24805 55.38021 70 ft 5 kts 318°
2026-04-24 19:32 25.24820 55.38000 70 ft 0 kts 303°
2026-04-24 19:33 25.24821 55.37999 70 ft 0 kts 303°
2026-04-24 19:33 25.24863 55.37928 70 ft 38 kts 299°
2026-04-24 19:33 25.25132 55.37442 70 ft 107 kts 300°
2026-04-24 19:33 25.25625 55.36552 70 ft 163 kts 301°
2026-04-24 19:34 25.26257 55.35435 451 ft 176 kts 304°
2026-04-24 19:34 25.26934 55.34310 1036 ft 180 kts 303°
2026-04-24 19:34 25.27584 55.33134 1677 ft 184 kts 303°
2026-04-24 19:34 25.28256 55.31892 2027 ft 192 kts 303°
2026-04-24 19:35 25.28955 55.30593 2272 ft 205 kts 300°
2026-04-24 19:35 25.29279 55.28993 2487 ft 224 kts 266°
2026-04-24 19:35 25.28770 55.27343 2689 ft 244 kts 245°
2026-04-24 19:35 25.27989 55.25645 3049 ft 255 kts 245°
2026-04-24 19:36 25.27200 55.23886 3622 ft 257 kts 245°
2026-04-24 19:36 25.26434 55.22132 4243 ft 257 kts 246°
2026-04-24 19:36 25.25673 55.20363 4861 ft 258 kts 245°
2026-04-24 19:36 25.24897 55.18566 5467 ft 259 kts 242°
2026-04-24 19:37 25.23729 55.17082 5988 ft 264 kts 211°
2026-04-24 19:37 25.21962 55.16567 6547 ft 268 kts 179°
2026-04-24 19:37 25.20091 55.16795 6911 ft 271 kts 169°
2026-04-24 19:37 25.18391 55.17643 6981 ft 275 kts 140°
2026-04-24 19:38 25.17230 55.19381 7135 ft 293 kts 116°
2026-04-24 19:38 25.16344 55.21434 7710 ft 295 kts 116°
2026-04-24 19:38 25.15479 55.23340 8265 ft 296 kts 118°
2026-04-24 19:38 25.14512 55.25398 8843 ft 298 kts 118°
2026-04-24 19:39 25.13557 55.27395 9369 ft 300 kts 119°
2026-04-24 19:39 25.12577 55.29432 9902 ft 303 kts 119°
2026-04-24 19:39 25.11577 55.31506 10450 ft 304 kts 119°
2026-04-24 19:39 25.10613 55.33567 10969 ft 306 kts 116°
2026-04-24 19:40 25.09738 55.35656 11464 ft 309 kts 115°
2026-04-24 19:40 25.08855 55.37804 11960 ft 311 kts 115°
2026-04-24 19:40 25.07965 55.39970 12476 ft 313 kts 115°
2026-04-24 19:40 25.07061 55.42183 12964 ft 316 kts 115°
2026-04-24 19:41 25.06195 55.44409 13281 ft 325 kts 114°
2026-04-24 19:41 25.05303 55.46743 13501 ft 337 kts 114°
2026-04-24 19:41 25.04373 55.49176 13715 ft 349 kts 114°
2026-04-24 19:41 25.03415 55.51669 13922 ft 361 kts 114°
2026-04-24 19:42 25.02389 55.54260 14124 ft 372 kts 116°
2026-04-24 19:42 25.01198 55.56827 14308 ft 382 kts 120°
2026-04-24 19:42 24.99851 55.59370 14479 ft 392 kts 121°
2026-04-24 19:42 24.98435 55.61981 14660 ft 402 kts 121°
2026-04-24 19:43 24.96996 55.64631 14926 ft 408 kts 121°
2026-04-24 19:43 24.95524 55.67348 15311 ft 410 kts 122°
2026-04-24 19:43 24.94017 55.70009 15687 ft 413 kts 124°
2026-04-24 19:43 24.92368 55.72592 16055 ft 415 kts 127°
2026-04-24 19:44 24.90663 55.75169 16414 ft 417 kts 127°
2026-04-24 19:44 24.88950 55.77745 16755 ft 420 kts 127°
2026-04-24 19:44 24.87206 55.80370 17085 ft 422 kts 127°
2026-04-24 19:44 24.85468 55.82988 17407 ft 425 kts 127°
2026-04-24 19:45 24.83722 55.85616 17733 ft 427 kts 127°
2026-04-24 19:45 24.81951 55.88240 18043 ft 429 kts 128°
2026-04-24 19:45 24.80094 55.90810 18364 ft 430 kts 135°
2026-04-24 19:45 24.77681 55.92744 18619 ft 429 kts 155°
2026-04-24 19:46 24.74879 55.93697 18933 ft 426 kts 174°
2026-04-24 19:46 24.71911 55.93773 19260 ft 424 kts 184°
2026-04-24 19:46 24.68975 55.93648 19563 ft 426 kts 184°
2026-04-24 19:46 24.65977 55.93529 19849 ft 428 kts 184°
2026-04-24 19:47 24.63003 55.93353 20142 ft 428 kts 190°
2026-04-24 19:47 24.60110 55.92523 20410 ft 426 kts 204°
2026-04-24 19:47 24.57549 55.91000 20716 ft 423 kts 217°
2026-04-24 19:47 24.55275 55.88945 21012 ft 423 kts 223°
2026-04-24 19:48 24.53050 55.86776 21313 ft 424 kts 224°
2026-04-24 19:48 24.50862 55.84631 21587 ft 426 kts 224°
2026-04-24 19:48 24.46411 55.80305 22141 ft 429 kts 223°
2026-04-24 19:49 24.41907 55.75963 22675 ft 431 kts 223°
2026-04-24 19:49 24.37400 55.71634 23200 ft 434 kts 223°
2026-04-24 19:50 24.30551 55.65064 23957 ft 437 kts 223°
2026-04-24 19:50 24.28188 55.62920 24141 ft 441 kts 218°
2026-04-24 19:51 24.22738 55.59755 24573 ft 449 kts 202°
2026-04-24 19:51 24.19758 55.58755 24787 ft 452 kts 199°
2026-04-24 19:52 24.13687 55.56959 25199 ft 455 kts 198°
2026-04-24 19:52 24.10587 55.56050 25403 ft 456 kts 198°
2026-04-24 19:52 24.07513 55.55141 25610 ft 457 kts 198°
2026-04-24 19:52 24.04453 55.54229 25846 ft 457 kts 198°
2026-04-24 19:53 24.01363 55.53306 26142 ft 456 kts 198°
2026-04-24 19:53 23.98337 55.52404 26423 ft 455 kts 198°
2026-04-24 19:53 23.92188 55.50579 26954 ft 454 kts 198°
2026-04-24 19:54 23.89137 55.49674 27228 ft 454 kts 198°
2026-04-24 19:54 23.86104 55.48773 27505 ft 453 kts 198°
2026-04-24 19:54 23.83066 55.47872 27794 ft 452 kts 198°
2026-04-24 19:54 23.80008 55.46963 28058 ft 452 kts 198°
2026-04-24 19:55 23.78011 55.46371 28236 ft 452 kts 198°
2026-04-24 19:55 23.73969 55.45171 28614 ft 451 kts 198°
2026-04-24 19:55 23.70937 55.44273 28894 ft 450 kts 198°
2026-04-24 19:55 23.67912 55.43376 29120 ft 451 kts 198°
2026-04-24 19:56 23.64873 55.42475 29350 ft 451 kts 198°
2026-04-24 19:56 23.61857 55.41581 29589 ft 452 kts 198°
2026-04-24 19:56 23.58826 55.40682 29847 ft 451 kts 198°
2026-04-24 19:56 23.55791 55.39784 30109 ft 451 kts 198°
2026-04-24 19:57 23.52735 55.38879 30381 ft 451 kts 198°
2026-04-24 19:57 23.49743 55.37994 30642 ft 450 kts 198°
2026-04-24 19:57 23.46696 55.37096 30894 ft 450 kts 198°
2026-04-24 19:57 23.43673 55.36203 31163 ft 450 kts 198°
2026-04-24 19:58 23.40639 55.35306 31440 ft 449 kts 198°
2026-04-24 19:58 23.37660 55.34427 31710 ft 448 kts 198°
2026-04-24 19:58 23.34617 55.33528 31977 ft 448 kts 198°
2026-04-24 19:58 23.31643 55.32649 32208 ft 448 kts 198°
2026-04-24 19:59 23.28623 55.31758 32393 ft 449 kts 198°
2026-04-24 19:59 23.25562 55.30855 32558 ft 451 kts 198°
2026-04-24 19:59 23.22541 55.29964 32751 ft 451 kts 198°
2026-04-24 19:59 23.19527 55.29076 32988 ft 451 kts 198°
2026-04-24 20:00 23.16480 55.28180 33214 ft 451 kts 198°
2026-04-24 20:00 23.13435 55.27238 33386 ft 450 kts 202°
2026-04-24 20:00 23.10591 55.25912 33522 ft 447 kts 211°
2026-04-24 20:00 23.07951 55.24101 33680 ft 443 kts 220°
2026-04-24 20:01 23.05650 55.21916 33833 ft 440 kts 229°
2026-04-24 20:01 23.02109 55.16582 33848 ft 435 kts 245°
2026-04-24 20:02 23.00402 55.11503 33851 ft 431 kts 258°
2026-04-24 20:02 22.98936 55.04083 33853 ft 431 kts 260°
2026-04-24 20:03 22.97704 54.97728 33853 ft 430 kts 259°
2026-04-24 20:03 22.96464 54.91411 33858 ft 431 kts 259°
2026-04-24 20:04 22.95204 54.85040 33855 ft 431 kts 259°
2026-04-24 20:04 22.93945 54.78706 33857 ft 430 kts 259°
2026-04-24 20:05 22.92690 54.72401 33857 ft 430 kts 259°
2026-04-24 20:05 22.91422 54.66044 33858 ft 431 kts 259°
2026-04-24 20:06 22.90148 54.59667 33862 ft 431 kts 259°
2026-04-24 20:06 22.88876 54.53321 33867 ft 431 kts 259°
2026-04-24 20:07 22.87812 54.48018 33867 ft 431 kts 259°
2026-04-24 20:07 22.86327 54.40651 33870 ft 431 kts 259°
2026-04-24 20:08 22.85054 54.34328 33870 ft 432 kts 259°
2026-04-24 20:08 22.83767 54.27960 33869 ft 431 kts 259°
2026-04-24 20:09 22.82487 54.21645 33867 ft 430 kts 259°
2026-04-24 20:09 22.81208 54.15332 33870 ft 431 kts 259°
2026-04-24 20:10 22.79919 54.09007 33870 ft 431 kts 259°
2026-04-24 20:10 22.78791 54.02607 33869 ft 430 kts 263°
2026-04-24 20:11 22.78259 53.96187 33866 ft 429 kts 269°
2026-04-24 20:11 22.78309 53.89745 33865 ft 429 kts 272°
2026-04-24 20:12 22.78528 53.83277 33860 ft 430 kts 273°
2026-04-24 20:12 22.78745 53.76824 33860 ft 429 kts 272°
2026-04-24 20:13 22.78956 53.70383 33856 ft 429 kts 272°
2026-04-24 20:13 22.79161 53.63971 33856 ft 427 kts 273°
2026-04-24 20:14 22.79367 53.57539 33857 ft 427 kts 273°
2026-04-24 20:14 22.79570 53.51106 33860 ft 427 kts 273°
2026-04-24 20:15 22.79767 53.44737 33859 ft 427 kts 273°
2026-04-24 20:15 22.79963 53.38320 33858 ft 427 kts 273°
2026-04-24 20:16 22.80157 53.31905 33861 ft 426 kts 272°
2026-04-24 20:16 22.80349 53.25501 33861 ft 427 kts 272°
2026-04-24 20:17 22.80537 53.19092 33857 ft 427 kts 273°
2026-04-24 20:17 22.80814 53.09479 33862 ft 427 kts 273°
2026-04-24 20:18 22.80998 53.03048 33859 ft 426 kts 273°
2026-04-24 20:18 22.81177 52.96695 33863 ft 427 kts 273°
2026-04-24 20:19 22.81353 52.90306 33863 ft 426 kts 273°
2026-04-24 20:19 22.81529 52.83873 33861 ft 425 kts 273°
2026-04-24 20:20 22.81699 52.77506 33861 ft 425 kts 273°
2026-04-24 20:20 22.81868 52.71156 33861 ft 424 kts 272°
2026-04-24 20:21 22.82034 52.64772 33865 ft 424 kts 272°
2026-04-24 20:21 22.82198 52.58410 33865 ft 423 kts 273°
2026-04-24 20:22 22.82357 52.52049 33869 ft 423 kts 272°
2026-04-24 20:22 22.82509 52.45678 33866 ft 423 kts 272°
2026-04-24 20:23 22.82640 52.39305 33861 ft 422 kts 272°
2026-04-24 20:23 22.82770 52.32981 33861 ft 422 kts 272°
2026-04-24 20:24 22.82897 52.26620 33858 ft 422 kts 272°
2026-04-24 20:24 22.83021 52.20318 33855 ft 421 kts 272°
2026-04-24 20:25 22.83144 52.13963 33853 ft 421 kts 272°
2026-04-24 20:25 22.83263 52.07642 33854 ft 421 kts 272°
2026-04-24 20:26 22.83381 52.01325 33854 ft 420 kts 272°
2026-04-24 20:26 22.83497 51.94978 33855 ft 419 kts 272°
2026-04-24 20:27 22.83608 51.88706 33854 ft 419 kts 272°
2026-04-24 20:27 22.83716 51.82421 33852 ft 419 kts 272°
2026-04-24 20:28 22.83824 51.76071 33853 ft 420 kts 272°
2026-04-24 20:28 22.83930 51.69762 33852 ft 419 kts 272°
2026-04-24 20:29 22.84031 51.63472 33853 ft 419 kts 272°
2026-04-24 20:29 22.84130 51.57194 33856 ft 419 kts 271°
2026-04-24 20:30 22.84227 51.50888 33855 ft 419 kts 271°
2026-04-24 20:30 22.84425 51.44579 33855 ft 419 kts 274°
2026-04-24 20:31 22.84857 51.38313 33855 ft 418 kts 274°
2026-04-24 20:31 22.85290 51.32058 33858 ft 418 kts 274°
2026-04-24 20:32 22.85724 51.25764 33856 ft 418 kts 274°
2026-04-24 20:32 22.86147 51.19536 33854 ft 418 kts 274°
2026-04-24 20:33 22.86573 51.13255 33854 ft 417 kts 274°
2026-04-24 20:33 22.86997 51.06986 33855 ft 417 kts 274°
2026-04-24 20:34 22.87417 51.00744 33855 ft 417 kts 274°
2026-04-24 20:34 22.87834 50.94490 33856 ft 417 kts 274°
2026-04-24 20:35 22.88249 50.88232 33860 ft 418 kts 274°
2026-04-24 20:35 22.88662 50.81949 33867 ft 417 kts 274°
2026-04-24 20:36 22.89071 50.75718 33880 ft 416 kts 274°
2026-04-24 20:36 22.89477 50.69477 33880 ft 416 kts 274°
2026-04-24 20:37 22.89880 50.63238 33880 ft 415 kts 274°
2026-04-24 20:37 22.90281 50.57022 33885 ft 414 kts 274°
2026-04-24 20:38 22.90677 50.50808 33885 ft 414 kts 274°
2026-04-24 20:38 22.91072 50.44577 33884 ft 413 kts 274°
2026-04-24 20:39 22.91464 50.38371 33885 ft 413 kts 274°
2026-04-24 20:39 22.91854 50.32175 33889 ft 413 kts 273°
2026-04-24 20:40 22.92240 50.25966 33888 ft 412 kts 273°
2026-04-24 20:40 22.92624 50.19793 33883 ft 413 kts 273°
2026-04-24 20:41 22.93005 50.13600 33875 ft 411 kts 273°
2026-04-24 20:41 22.93384 50.07413 33873 ft 412 kts 273°
2026-04-24 20:42 22.93758 50.01255 33871 ft 412 kts 273°
2026-04-24 20:42 22.94134 49.95031 33875 ft 412 kts 273°
2026-04-24 20:43 22.94507 49.88820 33879 ft 412 kts 273°
2026-04-24 20:43 22.94875 49.82626 33877 ft 413 kts 273°
2026-04-24 20:44 22.95242 49.76430 33881 ft 413 kts 273°
2026-04-24 20:44 22.95607 49.70228 33880 ft 413 kts 273°
2026-04-24 20:45 22.95969 49.64023 33878 ft 412 kts 273°
2026-04-24 20:45 22.96327 49.57861 33885 ft 412 kts 274°
2026-04-24 20:46 22.96684 49.51648 33879 ft 414 kts 273°
2026-04-24 20:46 22.97044 49.45403 33889 ft 414 kts 273°
2026-04-24 20:47 22.97396 49.39186 33888 ft 414 kts 273°
2026-04-24 20:47 22.97745 49.32988 33894 ft 415 kts 273°
2026-04-24 20:48 22.98098 49.26709 33889 ft 416 kts 273°
2026-04-24 20:48 22.98446 49.20451 33894 ft 417 kts 273°
2026-04-24 20:49 22.98791 49.14218 33893 ft 417 kts 273°
2026-04-24 20:49 22.99134 49.07949 33901 ft 418 kts 273°